Location: Newark
(58.8333°N, 23.5833°E)
Time: 13:57:57
(UTC+00:00)

Explorer 7 - Pass Details

Date: 16 November 2019
Orbit: 485 x 679 km, 50.3° (Epoch: 15 December)

Event Time Altitude Azimuth Distance (km) Brightness Sun altitude
Rises 00:34:06 0° 218° (SW) 2,861 - -42.1°
Reaches altitude 10° 00:37:03 10° 200° (SSW) 1,918 - -41.8°
Maximum altitude 00:39:58 18° 158° (SSE) 1,449 - -41.5°
Drops below altitude 10° 00:42:47 10° 115° (ESE) 1,838 - -41.2°
Sets 00:45:32 0° 96° (E) 2,693 - -40.9°
Exits shadow 00:45:41 - 95° (E) 2,746 10.9 -40.9°
